View from above orbital plane
|
View from above satellite
|
Ground track
|
The orbit data is extracted from the following two-line orbital elements,
1 14059U 83042B 19343.81478820 -.00000009 00000-0 -23479-4 0 9994
2 14059 82.9712 109.6995 0041639 242.2753 117.4179 13.78672819840539
Epoch (UTC): | 09 December 2019 19:33:17 |
Eccentricity: | 0.0041639 |
inclination: | 82.9712° |
perigee height: | 938 km |
apogee height: | 999 km |
right ascension of ascending node: | 109.6995° |
argument of perigee: | 242.2753° |
revolutions per day: | 13.78672819 |
mean anomaly at epoch: | 117.4179° |
orbit number at epoch: | 84053 |
The dashed part of the orbit path shows where the satellite is in the earth's shadow,
|
|